Flag for Switzerland Weather past 2 weeks in Illnau-Effretikon, Zurich, Switzerland

Now
59 °F

Cool.


Feels Like: 58 °F
Forecast: 57 / 69 °F
Wind: 5 mph from Southwest

Location: Zurich Town / Ville.

Current Time: Jul 28, 2014 at 11:59:10 PM

Latest Report: Jul 28, 2014 at 11:00 PM


Visibility: N/A

Pressure: 29.90 "Hg

Humidity: 96%

Dew point: 57 °F

Location of Illnau-EffretikonLocation

Historic Weather in Illnau-Effretikon — Graph

°F

Illnau-Effretikon temperature yesterday

Maximum temperature yesterday: 65 °F (at 2:00 PM)
Minimum temperature yesterday: 59 °F (at 5:00 AM)
Average temperature yesterday: 62 °F

Past Weeks' High & Low Weather Summary

 TemperatureHumidityPressure
High87 °F (Jul 19, 6:00 PM)99% (Jul 23, 1:00 AM)30.19 "Hg (Jul 23, 1:00 AM)
Low56 °F (Jul 16, 6:00 AM)25% (Jul 18, 3:00 PM)29.72 "Hg (Jul 28, 5:00 PM)
Average67 °F74%29.97 "Hg
* Reported Jul 13 10:00 PM — Jul 28 10:00 PM, Illnau-Effretikon, Weather by CustomWeather, © 2014

Note: Actual official high and low records may vary slightly from our data, if they occured in-between our weather recording intervals... More about our weather records

Advertising

Illnau-Effretikon weather history for previous 24 hours

 ConditionsComfort  
Time TempWeatherWind HumidityBarometerVisibility
10:00 PM
Jul 28
59 °FCool.3 mph96%29.89 "HgN/A
9:00 PM60 °FCool.6 mph94%29.88 "HgN/A
8:00 PM60 °FOvercast.12 mph94%29.85 "HgN/A
7:00 PM64 °FMild.9 mph82%29.80 "HgN/A
6:00 PM66 °FMild.12 mph74%29.79 "HgN/A
5:00 PM74 °FMild.2 mph57%29.72 "HgN/A
4:00 PM76 °FMild.1 mph54%29.74 "HgN/A
3:00 PM74 °FMild.1 mph58%29.77 "HgN/A
2:00 PM73 °FOvercast.5 mph66%29.80 "HgN/A
1:00 PM72 °FMild.3 mph70%29.82 "HgN/A
12:00 PM71 °FMild.5 mph67%29.84 "HgN/A
11:00 AM69 °FMild.2 mph74%29.86 "HgN/A
10:00 AM67 °FMild.3 mph83%29.89 "HgN/A
9:00 AM64 °FMild.2 mph85%29.91 "HgN/A
8:00 AM62 °FPassing clouds.1 mph94%29.92 "HgN/A
7:00 AM59 °FCool.1 mph95%29.94 "HgN/A
6:00 AM59 °FCool.1 mph97%29.94 "HgN/A
5:00 AM60 °FCool.2 mph96%29.94 "HgN/A
4:00 AM60 °FCool.2 mph96%29.96 "HgN/A
3:00 AM61 °FCool.2 mph95%29.97 "HgN/A
2:00 AM62 °FCool.1 mph91%29.98 "HgN/A
1:00 AM62 °FMild.2 mph91%30.01 "HgN/A
12:00 AM63 °FMild.No wind90%30.01 "HgN/A
11:00 PM
Jul 27
63 °FMild.1 mph89%30.02 "HgN/A
Weather by CustomWeather, © 2014

See weather overviewHow to use our weather pages